TimeCDT,TemperatureF,Dew PointF,Humidity,Sea Level PressureIn,VisibilityMPH,Wind Direction,Wind SpeedMPH,Gust SpeedMPH,PrecipitationIn,Events,Conditions,WindDirDegrees,DateUTC
12:54 AM,51.1,45.0,80,29.80,9.0,SSW,6.9,-,0.02,Rain,Light Rain,210,2012-10-09 05:54:00
1:54 AM,51.1,45.0,80,29.79,10.0,SSW,6.9,-,0.01,,Overcast,200,2012-10-09 06:54:00
2:54 AM,50.0,45.0,83,29.77,10.0,South,8.1,-,N/A,,Overcast,190,2012-10-09 07:54:00
3:54 AM,51.1,45.0,80,29.77,10.0,SSW,8.1,-,0.00,Rain,Light Rain,210,2012-10-09 08:54:00
4:54 AM,50.0,45.0,83,29.77,9.0,SW,4.6,-,0.00,Rain,Light Rain,220,2012-10-09 09:54:00
5:45 AM,51.8,46.4,82,29.77,10.0,WSW,4.6,-,0.00,Rain,Light Rain,250,2012-10-09 10:45:00
5:54 AM,52.0,46.0,80,29.77,10.0,WSW,6.9,-,0.01,Rain,Light Rain,240,2012-10-09 10:54:00
6:20 AM,51.8,46.4,82,29.77,9.0,WSW,5.8,-,0.00,Rain,Light Rain,250,2012-10-09 11:20:00
6:54 AM,51.1,46.0,83,29.78,7.0,SW,8.1,-,0.00,Rain,Light Rain,230,2012-10-09 11:54:00
7:54 AM,51.1,46.0,83,29.78,6.0,WSW,9.2,-,0.01,,Haze,240,2012-10-09 12:54:00
8:54 AM,52.0,46.9,83,29.77,8.0,WSW,6.9,-,0.00,,Overcast,240,2012-10-09 13:54:00
9:34 AM,53.6,46.4,77,29.77,10.0,West,11.5,17.3,N/A,,Overcast,280,2012-10-09 14:34:00
9:54 AM,52.0,44.1,74,29.79,10.0,WNW,11.5,21.9,N/A,,Overcast,300,2012-10-09 14:54:00
10:54 AM,46.0,37.9,73,29.84,6.0,NW,13.8,20.7,0.01,Rain,Light Rain,310,2012-10-09 15:54:00
11:18 AM,46.4,39.2,76,29.84,4.0,WNW,6.9,16.1,0.02,Rain,Light Rain,300,2012-10-09 16:18:00
11:54 AM,46.0,39.9,79,29.85,7.0,WNW,8.1,-,0.04,Rain,Light Rain,300,2012-10-09 16:54:00
12:02 PM,44.6,39.2,81,29.83,5.0,NW,15.0,20.7,0.01,Rain,Light Rain,320,2012-10-09 17:02:00
12:43 PM,44.6,37.4,76,29.83,10.0,West,6.9,-,0.02,,Overcast,280,2012-10-09 17:43:00
12:54 PM,46.0,37.9,73,29.85,10.0,West,6.9,-,0.02,,Overcast,270,2012-10-09 17:54:00
1:54 PM,48.0,37.9,68,29.83,10.0,WSW,12.7,-,N/A,,Mostly Cloudy,250,2012-10-09 18:54:00
2:54 PM,50.0,34.0,54,29.83,10.0,West,15.0,24.2,N/A,,Mostly Cloudy,270,2012-10-09 19:54:00
3:54 PM,50.0,28.9,44,29.84,10.0,West,18.4,27.6,N/A,,Overcast,280,2012-10-09 20:54:00
4:54 PM,48.0,27.0,44,29.86,10.0,WNW,13.8,25.3,N/A,,Mostly Cloudy,290,2012-10-09 21:54:00
5:54 PM,48.0,28.0,46,29.88,10.0,WNW,9.2,18.4,N/A,,Overcast,290,2012-10-09 22:54:00
6:54 PM,46.9,30.0,52,29.89,10.0,WNW,15.0,21.9,N/A,,Mostly Cloudy,300,2012-10-09 23:54:00
7:54 PM,43.0,28.9,58,29.93,10.0,WNW,17.3,23.0,N/A,,Partly Cloudy,300,2012-10-10 00:54:00
8:54 PM,43.0,27.0,53,29.96,10.0,WNW,16.1,24.2,N/A,,Overcast,300,2012-10-10 01:54:00
9:54 PM,43.0,26.1,51,29.97,10.0,WNW,11.5,20.7,N/A,,Overcast,300,2012-10-10 02:54:00
10:54 PM,42.1,26.1,53,29.99,10.0,WNW,12.7,20.7,N/A,,Overcast,300,2012-10-10 03:54:00
11:54 PM,41.0,25.0,53,30.00,10.0,WNW,13.8,21.9,N/A,,Overcast,300,2012-10-10 04:54:00